When you browse on this site, cookies collect data to enhance your experience and personalize the content and advertising you see.
Visit our Privacy Policy to learn more. By continuing to use the site, you agree to this use of cookies and data.

Météo par heure à Shеki

Ce jour, 15 Août, Samedi

Heure Température Précipitation Vent Pression Humidité
00:00 +24°C° 0.8 mm 2 m/s 731 mmHg 79%
01:00 +23°C° 0.9 mm 2 m/s 731 mmHg 81%
02:00 +23°C° 0.9 mm 1 m/s 731 mmHg 84%
03:00 +23°C° 0.9 mm 1 m/s 730 mmHg 86%
04:00 +23°C° 0.5 mm 1 m/s 731 mmHg 86%
05:00 +23°C° 0.5 mm 1 m/s 731 mmHg 86%
06:00 +22°C° 0.5 mm 1 m/s 732 mmHg 86%
07:00 +23°C° 0.1 mm 1 m/s 732 mmHg 83%
08:00 +24°C° 0.1 mm 1 m/s 732 mmHg 80%
09:00 +24°C° 0.1 mm 1 m/s 732 mmHg 78%
10:00 +25°C° 0.4 mm 1 m/s 732 mmHg 75%
11:00 +25°C° 0.4 mm 2 m/s 732 mmHg 73%
12:00 +26°C° 0.4 mm 2 m/s 732 mmHg 70%
13:00 +26°C° 0.5 mm 3 m/s 732 mmHg 69%
14:00 +26°C° 0.5 mm 3 m/s 732 mmHg 67%
15:00 +27°C° 0.5 mm 4 m/s 732 mmHg 66%
16:00 +26°C° 0 mm 4 m/s 732 mmHg 66%
17:00 +26°C° 0 mm 4 m/s 732 mmHg 66%
18:00 +25°C° 0 mm 4 m/s 732 mmHg 65%
19:00 +25°C° 0 mm 4 m/s 733 mmHg 67%
20:00 +23°C° 0 mm 4 m/s 733 mmHg 68%
21:00 +23°C° 0 mm 4 m/s 733 mmHg 69%
22:00 +22°C° 0 mm 4 m/s 733 mmHg 70%
23:00 +22°C° 0 mm 4 m/s 733 mmHg 70%

Demain, 16 Août, Dimanche

Heure Température Précipitation Vent Pression Humidité
00:00 +21°C° 0 mm 4 m/s 733 mmHg 71%
01:00 +21°C° 0 mm 3 m/s 733 mmHg 72%
02:00 +21°C° 0 mm 3 m/s 733 mmHg 72%
03:00 +21°C° 0 mm 2 m/s 733 mmHg 73%
04:00 +21°C° 0 mm 2 m/s 733 mmHg 73%
05:00 +21°C° 0 mm 2 m/s 733 mmHg 72%
06:00 +21°C° 0 mm 2 m/s 733 mmHg 72%
07:00 +21°C° 0 mm 2 m/s 733 mmHg 72%
08:00 +21°C° 0 mm 2 m/s 733 mmHg 71%
09:00 +21°C° 0 mm 2 m/s 733 mmHg 70%
10:00 +22°C° 0 mm 3 m/s 733 mmHg 65%
11:00 +24°C° 0 mm 3 m/s 733 mmHg 59%
12:00 +25°C° 0 mm 3 m/s 733 mmHg 54%
13:00 +26°C° 0 mm 3 m/s 733 mmHg 51%
14:00 +27°C° 0 mm 3 m/s 733 mmHg 49%
15:00 +28°C° 0 mm 3 m/s 732 mmHg 46%
16:00 +27°C° 0 mm 3 m/s 732 mmHg 50%
17:00 +26°C° 0 mm 3 m/s 732 mmHg 54%
18:00 +25°C° 0 mm 2 m/s 732 mmHg 57%
19:00 +25°C° 0 mm 2 m/s 732 mmHg 59%
20:00 +24°C° 0 mm 2 m/s 733 mmHg 60%
21:00 +24°C° 0 mm 1 m/s 733 mmHg 61%
22:00 +24°C° 0 mm 2 m/s 733 mmHg 61%
23:00 +23°C° 0 mm 2 m/s 733 mmHg 60%

Après-demain, 17 Août, Lundi

Heure Température Précipitation Vent Pression Humidité
00:00 +23°C° 0 mm 2 m/s 732 mmHg 60%
01:00 +21°C° 0.2 mm 2 m/s 732 mmHg 66%
02:00 +20°C° 0.2 mm 2 m/s 732 mmHg 72%
03:00 +19°C° 0.2 mm 2 m/s 732 mmHg 78%
04:00 +19°C° 0.5 mm 2 m/s 732 mmHg 80%
05:00 +20°C° 0.5 mm 1 m/s 732 mmHg 83%
06:00 +20°C° 0.5 mm 1 m/s 733 mmHg 85%
07:00 +20°C° 0.7 mm 1 m/s 733 mmHg 83%
08:00 +21°C° 0.7 mm 1 m/s 733 mmHg 80%
09:00 +20°C° 0.7 mm 2 m/s 733 mmHg 78%
10:00 +21°C° 0.2 mm 2 m/s 734 mmHg 74%
11:00 +21°C° 0.2 mm 2 m/s 734 mmHg 71%
12:00 +23°C° 0.2 mm 2 m/s 734 mmHg 67%
13:00 +23°C° 0.1 mm 2 m/s 734 mmHg 65%
14:00 +24°C° 0.1 mm 2 m/s 734 mmHg 62%
15:00 +24°C° 0.1 mm 1 m/s 734 mmHg 60%
16:00 +24°C° 0.1 mm 2 m/s 734 mmHg 63%
17:00 +23°C° 0.1 mm 2 m/s 734 mmHg 66%
18:00 +21°C° 0.1 mm 2 m/s 734 mmHg 70%
19:00 +22°C° 0.1 mm 1 m/s 735 mmHg 71%
20:00 +22°C° 0.1 mm 1 m/s 735 mmHg 71%
21:00 +22°C° 0.1 mm 1 m/s 736 mmHg 72%
22:00 +22°C° 0.1 mm 1 m/s 736 mmHg 74%
23:00 +20°C° 0.1 mm 2 m/s 735 mmHg 76%

18 Août, Mardi

Heure Température Précipitation Vent Pression Humidité
00:00 +20°C° 0.1 mm 2 m/s 735 mmHg 78%
01:00 +21°C° 0 mm 1 m/s 735 mmHg 78%
02:00 +21°C° 0 mm 1 m/s 735 mmHg 78%
03:00 +21°C° 0 mm 1 m/s 735 mmHg 78%
04:00 +21°C° 0 mm 1 m/s 735 mmHg 78%
05:00 +21°C° 0 mm 1 m/s 735 mmHg 77%
06:00 +21°C° 0 mm 1 m/s 735 mmHg 76%
07:00 +21°C° 0 mm 2 m/s 735 mmHg 73%
08:00 +23°C° 0 mm 2 m/s 735 mmHg 69%
09:00 +23°C° 0 mm 2 m/s 735 mmHg 66%
10:00 +24°C° 0 mm 2 m/s 735 mmHg 61%
11:00 +26°C° 0 mm 2 m/s 735 mmHg 57%
12:00 +27°C° 0 mm 2 m/s 734 mmHg 53%
13:00 +27°C° 0 mm 1 m/s 734 mmHg 51%
14:00 +28°C° 0 mm 1 m/s 734 mmHg 49%
15:00 +28°C° 0 mm 1 m/s 733 mmHg 47%
16:00 +28°C° 0 mm 1 m/s 733 mmHg 48%
17:00 +27°C° 0 mm 1 m/s 733 mmHg 50%
18:00 +27°C° 0 mm 1 m/s 733 mmHg 52%
19:00 +26°C° 0 mm 1 m/s 733 mmHg 54%
20:00 +25°C° 0 mm 2 m/s 733 mmHg 56%
21:00 +24°C° 0 mm 2 m/s 733 mmHg 58%
22:00 +24°C° 0 mm 2 m/s 733 mmHg 61%
23:00 +23°C° 0 mm 2 m/s 733 mmHg 63%

19 Août, Mercredi

Heure Température Précipitation Vent Pression Humidité
00:00 +23°C° 0 mm 2 m/s 733 mmHg 66%
01:00 +21°C° 0 mm 2 m/s 732 mmHg 68%
02:00 +22°C° 0 mm 1 m/s 732 mmHg 70%
03:00 +21°C° 0 mm 1 m/s 732 mmHg 72%
04:00 +21°C° 0 mm 1 m/s 732 mmHg 72%
05:00 +21°C° 0 mm 1 m/s 732 mmHg 72%
06:00 +20°C° 0 mm 0 m/s 732 mmHg 72%
07:00 +23°C° 0 mm 1 m/s 732 mmHg 68%
08:00 +24°C° 0 mm 1 m/s 732 mmHg 65%
09:00 +26°C° 0 mm 1 m/s 732 mmHg 61%
10:00 +27°C° 0 mm 1 m/s 732 mmHg 58%
11:00 +28°C° 0 mm 1 m/s 731 mmHg 55%
12:00 +29°C° 0 mm 1 m/s 731 mmHg 52%
13:00 +29°C° 0 mm 1 m/s 731 mmHg 50%
14:00 +29°C° 0 mm 1 m/s 731 mmHg 49%
15:00 +30°C° 0 mm 1 m/s 731 mmHg 48%
16:00 +29°C° 0 mm 1 m/s 731 mmHg 50%
17:00 +29°C° 0 mm 1 m/s 731 mmHg 51%
18:00 +27°C° 0 mm 0 m/s 731 mmHg 52%
19:00 +28°C° 0 mm 1 m/s 732 mmHg 53%
20:00 +27°C° 0 mm 1 m/s 732 mmHg 54%
21:00 +27°C° 0 mm 2 m/s 732 mmHg 55%
22:00 +26°C° 0 mm 2 m/s 732 mmHg 55%
23:00 +25°C° 0 mm 2 m/s 732 mmHg 55%

20 Août, Jeudi

Heure Température Précipitation Vent Pression Humidité
00:00 +24°C° 0 mm 2 m/s 732 mmHg 55%
01:00 +24°C° 0 mm 2 m/s 732 mmHg 57%
02:00 +23°C° 0 mm 1 m/s 732 mmHg 59%
03:00 +23°C° 0 mm 1 m/s 732 mmHg 60%
04:00 +23°C° 0 mm 1 m/s 732 mmHg 60%
05:00 +23°C° 0 mm 1 m/s 733 mmHg 60%
06:00 +24°C° 0 mm 1 m/s 733 mmHg 60%
07:00 +25°C° 0 mm 1 m/s 733 mmHg 55%
08:00 +27°C° 0 mm 2 m/s 733 mmHg 50%
09:00 +28°C° 0 mm 2 m/s 733 mmHg 44%
10:00 +29°C° 0 mm 2 m/s 733 mmHg 42%
11:00 +30°C° 0 mm 2 m/s 733 mmHg 40%
12:00 +31°C° 0 mm 2 m/s 732 mmHg 39%
13:00 +31°C° 0 mm 2 m/s 732 mmHg 37%
14:00 +32°C° 0 mm 2 m/s 732 mmHg 36%
15:00 +34°C° 0 mm 2 m/s 732 mmHg 35%
16:00 +32°C° 0 mm 2 m/s 732 mmHg 37%
17:00 +31°C° 0 mm 2 m/s 731 mmHg 39%
18:00 +31°C° 0 mm 2 m/s 731 mmHg 41%
19:00 +29°C° 0 mm 2 m/s 732 mmHg 43%
20:00 +28°C° 0 mm 2 m/s 732 mmHg 45%
21:00 +27°C° 0 mm 2 m/s 732 mmHg 47%
22:00 +26°C° 0 mm 2 m/s 732 mmHg 48%
23:00 +25°C° 0 mm 2 m/s 732 mmHg 49%
Voir plus